Regional Weather Roundup
Issued by NWS

Home | Current Version | Previous Version | Text Only | Print | Product List | Glossary Off
Versions: 1 2 3 4 5 6 7 8 9 10 11 12 13 14 15 16 17 18 19 20 21 22 23 24 25 26 27 28 29 30 31 32 33 34 35 36 37 38 39 40 41 42 43 44 45 46 47 48 49 50

126
ASUS44 KJAN 191103
RWRMS

MISSISSIPPI HOURLY WEATHER ROUNDUP
NATIONAL WEATHER SERVICE JACKSON MS
600 AM CDT FRI SEP 19 2014

NOTE: "FAIR: INDICATES FEW OR NO CLOUDS BELOW 12,000 FEET WITH NO
SIGNIFICANT WEATHER AND/OR OBSTRUCTIONS TO VISIBILITY.

MSZ001>002-007>008-010>013-018>021-025>028-034>036-191200-
NORTHWEST MISSISSIPPI

CITY           SKY/WX    TMP DP  RH WIND       PRES   REMARKS
CLARKSDALE     CLOUDY    66  66 100 CALM      29.99R VSB<1/4
CLEVELAND      FAIR      65  65 100 CALM      29.96R FOG
GREENWOOD      FOG       67  65  93 NE5       29.96R VSB 3/4
GREENVILLE     CLEAR     67  65  93 N5        29.95R
GRENADA        FAIR      64  64 100 E3        29.98R
OLIVE BRANCH   CLOUDY    63 N/A N/A NE5       30.00R VSB 0
OXFORD         FOG       61  61 100 NE3       30.00S VSB 1
TUNICA         FOG       61  61 100 N5        29.99S VSB 1/2
$$

MSZ003>006-009-014>017-022>024-029>033-037>039-191200-
NORTHEAST MISSISSIPPI

CITY           SKY/WX    TMP DP  RH WIND       PRES   REMARKS
COLUMBUS AFB   PTCLDY    67  67 100 W2        29.98R
CORINTH        FOG       66  66 100 CALM      29.99S VSB<1/4
GOLDN TRIANGLE CLEAR     66  63  88 CALM      29.99R
STARKVILLE       N/A     64  64 100 CALM      29.99R FOG
TUPELO         FOG       66  65  96 CALM      29.99R VSB 1/4
$$

MSZ040-058-191200-
CENTRAL MISSISSIPPI

CITY           SKY/WX    TMP DP  RH WIND       PRES   REMARKS
JACKSON INTL   CLEAR     67  66  97 NE5       29.95S
JACKSON HAWKNS CLEAR     67  65  93 NE5       29.95S
MERIDIAN KEY   CLEAR     68  67  96 N5        29.98R
MERIDIAN NAS   MOCLDY    70  67  90 CALM      29.98R
RAYMOND        FAIR      64  59  82 CALM      29.95R HAZE
VICKSBURG      CLEAR     66  64  93 CALM      29.94S
$$

MSZ059>079-191200-
SOUTH MISSISSIPPI

CITY           SKY/WX    TMP DP  RH WIND       PRES   REMARKS
BROOKHAVEN     FAIR      66  66 100 CALM      29.97R FOG
COLUMBIA       FAIR      68  68 100 CALM      29.93S FOG
HATTIESBURG    MOCLDY    70  68  93 N5        29.96R
MCCOMB         MOCLDY    70  68  93 CALM      29.94R FOG
NATCHEZ        PTCLDY    70  66  88 SE5       29.94R
PINE BELT      PTCLDY   N/A N/A N/A NE3       29.97R
$$

MSZ080>082-191200-
COASTAL MISSISSIPPI

CITY           SKY/WX    TMP DP  RH WIND       PRES   REMARKS
BILOXI         CLOUDY    73  69  88 E3        29.94R
PASCAGOULA     LGT RAIN  71  70  96 SE7       29.95R
GULFPORT       CLOUDY    71  70  96 SW3       29.93R
$$



USA.gov is the U.S. government's official web portal to all federal, state and local government web resources and services.